Lexington Weather

Lexington, Massachusetts, USA

43°F
1/23/2020 12:26pm 
  • Lexington Conditions: Mostly cloudy
  • Temperature: 43.2°F / 6.2°CWarmer 4.2°F than last hour.
  • Dew Point: 21.0°FDecreased 1.5°Fsince last hour.
  • Relative Humidity: 41%Decreased 10.0% since last hour.
  • Wind: Calm, 10-min avg: Calm, gust: None
  • Barometer: 30.30 inFalling 0.02  inHg/hr Falling Slowly
  • Visibility: 10 miles
  • Rain Today: 0.01 in
  •   

Regional Weather Roundup
for Boston / Norton, MA

        
000
ASUS41 KBOX 210600
RWRBOX

REGIONAL WEATHER ROUNDUP
NATIONAL WEATHER SERVICE BOSTON/NORTON MA
100 AM EST TUE JAN 21 2020

NOTE:  "FAIR" INDICATES FEW OR NO CLOUDS BELOW 12,000 FEET WITH NO 
SIGNIFICANT WEATHER AND/OR OBSTRUCTIONS TO VISIBILITY.

MAZALL-210700-
EASTERN MASSACHUSETTS
  
CITY           SKY/WX    TMP DP  RH WIND       PRES   REMARKS
BOSTON         FAIR      21  -1  38 NW8       30.32R WCI  11          
6HR MIN TEMP:  21; 6HR MAX TEMP:  27;                                

BEVERLY        FAIR      16  -1  47 NW8       30.30R WCI   5          
LAWRENCE       FAIR      17  -2  43 VRB6      30.32R WCI   9          
BEDFORD        FAIR      17  -3  41 W8        30.30S WCI   7          
BLUE HILL      NOT AVBL                                               
NORWOOD        FAIR      11   1  64 CALM      30.32R                  
MARSHFIELD     NOT AVBL                                               
PLYMOUTH       FAIR      17   1  49 W5        30.29F WCI  10          
TAUNTON        FAIR      17   1  49 NW6       30.30F WCI   9          
NEW BEDFORD    FAIR      18   1  47 W8        30.30S WCI   8          
$$

MAZALL-210700-
CAPE COD AND THE ISLANDS
  
CITY           SKY/WX    TMP DP  RH WIND       PRES   REMARKS
FALMOUTH       CLEAR     18   0  45 NW6       30.29S WCI   9          
HYANNIS        NOT AVBL                                               
CHATHAM        FAIR      25   9  50 VRB3      30.28S                  
PROVINCETOWN   FAIR      24  11  57 N14G25    30.29S WCI  12          
NANTUCKET      FAIR      25   8  48 N13       30.28S WCI  14          
MARTHAS VNYRD  FAIR      22   3  44 NW10      30.30S WCI  11          
$$
 
MAZALL-210700-
CENTRAL AND WESTERN MASSACHUSETTS
  
CITY           SKY/WX    TMP DP  RH WIND       PRES   REMARKS
WORCESTER      FAIR      14  -4  44 NW12      30.24R WCI   0          
6HR MIN TEMP:  13; 6HR MAX TEMP:  17;                                

FITCHBURG      FAIR      13  -3  49 N6        30.31R WCI   4          
ORANGE         FAIR       6  -3  66 CALM      30.32R                  
SPRINGFIELD    FAIR       3  -3  74 CALM      30.32S                  
WESTFIELD      FAIR      15   1  53 N6        30.33S WCI   6          
NORTH ADAMS    FAIR       3  -2  79 NW6       30.34S WCI  -8          
PITTSFIELD     FAIR      12   3  67 NW7       30.27S WCI   1          
$$
 
RIZALL-210700-
RHODE ISLAND
  
CITY           SKY/WX    TMP DP  RH WIND       PRES   REMARKS
PROVIDENCE     FAIR      18   2  49 W6        30.33S WCI  10          
6HR MIN TEMP:  18; 6HR MAX TEMP:  25;                                

NEWPORT        FAIR      20   3  48 NW10      30.31S WCI   9          
BLOCK ISLAND   FAIR      20   5  52 NW8       30.33S WCI  10          
SMITHFIELD     FAIR      14   1  56 NW5       30.29F WCI   6          
WESTERLY       FAIR      20   0  41 CALM      30.35S                  
$$
 
CTZALL-210700-
CONNECTICUT
  
CITY           SKY/WX    TMP DP  RH WIND       PRES   REMARKS
BRADLEY INTL   FAIR      14   1  56 N3        30.34S                  
6HR MIN TEMP:  11; 6HR MAX TEMP:  20;                                

HARTFORD       FAIR      16   4  59 N3        30.36S                  
BRIDGEPORT     FAIR      20   2  45 W6        30.37F WCI  12          
DANBURY        FAIR      15   1  53 CALM      30.36S                  
GROTON         NOT AVBL                                               
NEW HAVEN      FAIR      21   4  47 W7        30.36F WCI  12          
CHESTER        NOT AVBL                                               
MERIDEN        FAIR      13   3  64 W8        30.35F WCI   2          
WILLIMANTIC    FAIR      15  -1  49 N5        30.33F WCI   8          
OXFORD         FAIR      15   6  67 N7        30.31S WCI   5          
$$

MEZ002-015-021-024-NHZ003-005-008-011-012-014-VTZ005-008-210700-
NORTHERN NEW ENGLAND
  
CITY           SKY/WX    TMP DP  RH WIND       PRES   REMARKS
PORTLAND ME    FAIR       8  -3  61 CALM      30.29R                  
6HR MIN TEMP:   7; 6HR MAX TEMP:  18;                                

BANGOR ME      FAIR       9  -1  64 NW10      30.25S WCI  -5          
CONCORD NH     FAIR      13  -3  49 NW6       30.31R WCI   4          
MANCHESTER NH  FAIR      17  -2  43 N10       30.30R WCI   5          
NASHUA NH      FAIR      16   1  51 NW10      30.32R WCI   4          
PORTSMOUTH NH  NOT AVBL                                               
JAFFREY NH     FAIR      14  -5  42 VRB5      30.25R WCI   6          
KEENE NH       FAIR      -3  -6  87 CALM      30.33S                  
BURLINGTON VT  FAIR       1  -3  83 CALM      30.36S                  
MT. WASHINGTON NOT AVBL                                               
$$

NYZ052-076-210700-
EASTERN NEW YORK
  
CITY           SKY/WX    TMP DP  RH WIND       PRES   REMARKS
ALBANY         FAIR      13   3  64 S3        30.40F                  
6HR MIN TEMP:   9; 6HR MAX TEMP:  18;                                

NEW YORK CITY  FAIR      22   5  48 NW16      30.38S WCI   8          
6HR MIN TEMP:  22; 6HR MAX TEMP:  29;                                

$$
 
ANZALL-210700-
MARINE OBSERVATIONS
  
STATION/POSITION TIME  TEMP    WIND        PRES    VSBY  WAVE
                       AIR SEA DIR/SP/G                  HT/PER
                 (UTC) (F)     (DEG/KT/KT) (MB)    (MI)  (FT/S)
BOSTON BUOY      0450   24 43  320/ 19/ 25 1025.2          3/ 6
BUZZARDS BAY     0500   24     310/ 15/ 17 1026.9R
NANTUCKET SOUND  NOT AVBL
MASS BAY-STELLWA 0504   23 41  340/ 17/ 23 1023.9S  1 7/8  3/ 6
ISLE OF SHOALS   0500   21     310/ 13/ 16 1025.2R
S OF BLOCK IS    0530      45                N/A           3/ 4
$$

......................KEY.........................
  SKY/WX - SKY CONDITION/PRESENT WEATHER
  TMP    - TEMPERATURE IN FAHRENHEIT
  DWPT   - DEWPOINT IN FAHRENHEIT
  RH     - RELATIVE HUMIDITY IN PERCENT
  WIND   - DIRECTION AND SPEED IN MPH
  PRES   - MEAN SEA LEVEL PRESSURE IN INCHES OF HG
  WCI    - WIND CHILL INDEX
  VSB    - VISIBILITY IN MILES
  HX     - HEAT INDEX
  TC     - TEMPERATURE IN CELSIUS
  VRB    - VARIABLE WIND DIRECTION
  N/A    - NOT AVAILABLE
  
      

Other recent Regional Weather Roundups

Thu Jan 23, 12:10pm

Thu Jan 23, 12:01pm

Thu Jan 23, 11:10am

Thu Jan 23, 11:00am

Thu Jan 23, 10:10am

Thu Jan 23, 10:00am

Thu Jan 23, 9:10am

Thu Jan 23, 9:00am

Thu Jan 23, 8:10am

Thu Jan 23, 8:00am

Thu Jan 23, 7:10am

Thu Jan 23, 7:01am

Thu Jan 23, 6:10am

Thu Jan 23, 6:00am

Thu Jan 23, 5:10am

Thu Jan 23, 5:00am

Thu Jan 23, 4:10am

Thu Jan 23, 4:01am

Thu Jan 23, 3:10am

Thu Jan 23, 3:00am

Thu Jan 23, 2:10am

Thu Jan 23, 2:00am

Thu Jan 23, 1:10am

Thu Jan 23, 1:00am

Thu Jan 23, 12:10am

Thu Jan 23, 12:00am

Wed Jan 22, 11:10pm

Wed Jan 22, 11:01pm

Wed Jan 22, 10:10pm

Wed Jan 22, 10:00pm

Wed Jan 22, 9:10pm

Wed Jan 22, 9:00pm

Wed Jan 22, 8:10pm

Wed Jan 22, 8:01pm

Wed Jan 22, 7:10pm

Wed Jan 22, 7:00pm

Wed Jan 22, 6:10pm

Wed Jan 22, 6:01pm

Wed Jan 22, 5:10pm

Wed Jan 22, 5:00pm

Wed Jan 22, 4:10pm

Wed Jan 22, 4:00pm

Wed Jan 22, 3:10pm

Wed Jan 22, 3:00pm

Wed Jan 22, 2:10pm

Wed Jan 22, 2:00pm

Wed Jan 22, 1:10pm

Wed Jan 22, 1:00pm

Wed Jan 22, 12:10pm

Wed Jan 22, 12:00pm

Wed Jan 22, 11:10am

Wed Jan 22, 11:00am

Wed Jan 22, 10:10am

Wed Jan 22, 10:01am

Wed Jan 22, 9:10am

Wed Jan 22, 9:00am

Wed Jan 22, 8:10am

Wed Jan 22, 8:00am

Wed Jan 22, 7:10am

Wed Jan 22, 7:00am

Wed Jan 22, 6:10am

Wed Jan 22, 6:00am

Wed Jan 22, 5:10am

Wed Jan 22, 5:00am

Wed Jan 22, 4:10am

Wed Jan 22, 4:00am

Wed Jan 22, 3:10am

Wed Jan 22, 3:01am

Wed Jan 22, 2:10am

Wed Jan 22, 2:00am

Wed Jan 22, 1:10am

Wed Jan 22, 1:00am

Wed Jan 22, 12:10am

Wed Jan 22, 12:00am

Tue Jan 21, 11:10pm

Tue Jan 21, 11:00pm

Tue Jan 21, 10:10pm

Tue Jan 21, 10:00pm

Tue Jan 21, 9:10pm

Tue Jan 21, 9:01pm

Tue Jan 21, 8:10pm

Tue Jan 21, 8:00pm

Tue Jan 21, 7:10pm

Tue Jan 21, 7:00pm

Tue Jan 21, 6:10pm

Tue Jan 21, 6:01pm

Tue Jan 21, 5:10pm

Tue Jan 21, 5:00pm

Tue Jan 21, 4:10pm

Tue Jan 21, 4:00pm

Tue Jan 21, 3:10pm

Tue Jan 21, 3:01pm

Tue Jan 21, 2:10pm

Tue Jan 21, 2:00pm

Tue Jan 21, 1:10pm

Tue Jan 21, 1:00pm

Tue Jan 21, 12:10pm

Tue Jan 21, 12:00pm

Tue Jan 21, 11:10am

Tue Jan 21, 11:00am

Tue Jan 21, 10:10am

Tue Jan 21, 10:00am

Tue Jan 21, 9:10am

Tue Jan 21, 9:00am

Tue Jan 21, 8:10am

Tue Jan 21, 8:00am

Tue Jan 21, 7:10am

Tue Jan 21, 7:00am

Tue Jan 21, 6:10am

Tue Jan 21, 6:00am

Tue Jan 21, 5:10am

Tue Jan 21, 5:00am

Tue Jan 21, 4:10am

Tue Jan 21, 4:00am

Tue Jan 21, 3:10am

Tue Jan 21, 3:00am

Tue Jan 21, 2:10am

Tue Jan 21, 2:01am

Tue Jan 21, 1:10am

Tue Jan 21, 12:10am

Tue Jan 21, 12:00am

Mon Jan 20, 11:10pm

Mon Jan 20, 11:00pm

Mon Jan 20, 10:10pm

Mon Jan 20, 10:00pm

Mon Jan 20, 9:10pm

Mon Jan 20, 9:00pm

Mon Jan 20, 8:10pm

Mon Jan 20, 8:00pm

Mon Jan 20, 7:10pm

Mon Jan 20, 7:00pm

Mon Jan 20, 6:10pm

Mon Jan 20, 6:00pm

Mon Jan 20, 5:10pm

Mon Jan 20, 5:00pm

Mon Jan 20, 4:10pm

Mon Jan 20, 4:01pm

Mon Jan 20, 3:10pm

Mon Jan 20, 3:00pm

Mon Jan 20, 2:10pm

Mon Jan 20, 2:00pm

Mon Jan 20, 1:10pm

Mon Jan 20, 1:00pm

Meta data:

ID: 4bc2e8af-74f8-4f1e-a910-641493c27b79
Link: https://api.weather.gov/products/4bc2e8af-74f8-4f1e-a910-641493c27b79